Vorticity
13 14 14 14 13 10 8 6 7 8 8 8 9 12 14 15 14 12 12 13 13 12 11 11 11 9 8 8 6 5 6 5 4 3 0 3 6 4 5 6 8 9 10 12 14 15 16 15 13 10 6 3 2 1 2 3 5 7 8 9 10 11 9 6 5 5 6 7 7 7 6 5 5 5 6 6 7 7 7 8 7 6 5 5 4 4 4 2
9 10 11 12 14 14 13 11 8 7 7 8 8 8 10 13 15 14 13 12 13 14 12 10 11 12 10 9 9 6 6 6 6 3 0 5 6 3 3 4 5 7 8 9 10 12 13 15 16 16 15 12 10 6 3 2 2 5 8 10 12 11 7 5 5 5 5 5 5 6 6 5 5 5 5 7 8 8 9 10 6 4 3 3 4 3 3 3
6 6 7 8 9 10 12 13 13 11 8 7 7 7 7 9 12 14 14 13 13 14 15 12 9 11 13 11 9 9 6 6 7 4 2 5 5 4 4 3 3 5 6 8 9 10 10 12 14 15 17 16 16 16 12 8 4 3 4 10 12 8 6 6 5 4 4 5 6 6 5 5 5 5 6 9 9 7 8 7 3 3 3 3 3 2 5 7
5 5 6 6 7 7 7 8 10 12 12 10 8 8 7 7 8 11 13 14 13 13 15 16 12 8 12 13 10 10 9 6 5 5 5 5 4 4 5 5 4 4 5 7 7 8 9 9 11 12 13 15 16 17 18 15 11 7 4 6 10 8 8 7 5 5 5 5 5 5 5 5 4 5 8 9 9 6 5 3 2 3 3 3 4 3 6 11
7 7 8 7 7 7 7 6 6 7 10 11 11 10 8 7 7 7 10 13 14 13 12 15 17 11 8 12 13 10 10 9 5 5 6 6 5 4 4 5 5 4 4 5 6 7 7 7 8 9 10 12 14 15 17 17 14 13 10 7 8 9 8 7 7 8 6 5 6 6 6 5 4 6 6 7 8 5 2 3 4 3 2 2 3 2 7 12
9 9 9 9 9 9 9 8 8 6 6 7 9 11 10 9 7 7 7 9 12 14 13 12 17 17 11 9 12 12 10 10 8 5 7 6 6 5 4 4 6 6 4 4 5 6 6 6 7 7 9 10 11 13 14 16 15 12 12 10 8 9 8 7 8 8 8 8 7 6 7 6 6 7 5 7 7 3 2 4 5 3 2 3 2 3 10 13
9 9 9 10 10 11 11 10 9 9 8 6 5 7 10 10 9 8 6 6 9 12 14 12 13 18 17 10 9 12 11 11 11 7 7 7 6 6 5 5 5 6 5 4 4 6 6 6 6 6 7 8 10 11 12 16 15 11 11 9 8 8 6 6 8 9 9 9 7 7 8 7 7 6 8 10 7 4 5 5 5 5 3 4 4 7 13 13
10 11 12 12 13 14 14 14 13 11 10 10 8 6 5 8 10 9 8 6 6 8 12 14 12 13 19 16 10 10 12 12 13 10 8 7 6 6 6 6 5 6 6 6 3 4 6 5 5 4 5 7 8 10 12 14 13 11 10 8 8 8 6 7 9 10 9 9 10 9 7 8 8 6 9 11 6 5 7 5 4 3 0 3 7 10 12 11
13 13 14 14 15 16 16 17 18 16 13 12 12 10 6 5 7 10 10 7 6 6 8 12 13 10 14 19 14 10 12 13 11 11 10 7 7 6 6 6 6 6 6 7 5 3 4 5 4 3 3 6 7 8 11 13 11 10 10 7 7 7 7 9 8 8 8 8 10 9 8 8 8 9 10 9 7 5 5 4 3 1 1 6 10 10 10 9
13 13 13 14 14 14 15 16 18 19 18 16 13 14 13 8 5 6 9 9 7 6 6 8 13 12 11 16 19 13 11 14 11 11 12 8 6 7 6 6 6 6 6 7 8 5 4 6 6 3 2 3 6 7 10 13 11 9 11 8 6 6 6 9 9 8 8 7 8 7 9 9 8 10 10 7 6 4 5 5 3 3 4 7 12 14 9 7
13 12 12 11 11 11 12 13 14 16 18 19 17 14 16 15 10 6 6 9 9 6 6 6 9 13 12 11 17 18 14 14 12 10 13 11 8 8 6 6 7 7 6 7 8 7 4 4 5 4 3 2 5 8 9 13 14 8 8 8 7 6 5 7 9 9 8 7 7 6 7 10 8 8 9 6 4 5 6 4 3 6 8 7 10 15 10 6
11 8 6 4 4 5 6 8 10 12 14 17 18 17 16 17 16 12 6 6 9 9 6 6 7 10 13 12 13 19 16 12 10 9 11 12 10 9 8 6 7 7 7 7 7 8 6 4 4 3 3 3 5 8 8 13 17 9 4 7 8 7 6 6 7 8 8 8 7 7 7 8 8 8 6 3 3 5 4 3 5 4 5 8 8 12 12 8
10 8 7 5 4 4 4 4 6 8 11 14 15 16 16 16 17 18 13 6 6 10 8 6 6 8 12 12 11 15 17 13 12 10 10 12 11 10 9 7 6 7 7 6 6 7 7 5 4 4 2 2 4 7 9 12 17 13 3 3 7 8 6 5 6 6 6 8 8 6 7 7 8 8 4 2 3 4 3 5 8 6 8 14 13 12 13 8
8 9 8 8 7 7 6 4 5 6 9 13 15 15 14 14 15 17 19 14 7 7 9 8 5 7 11 10 10 14 17 16 14 13 11 11 12 10 9 8 6 6 6 6 7 6 7 6 3 3 3 1 2 6 9 10 16 18 7 0 3 7 8 5 5 6 5 6 7 8 9 8 9 7 4 4 4 5 7 6 6 8 10 12 9 2 1 3
6 7 8 9 10 11 10 8 7 5 5 9 13 17 15 13 12 13 18 20 14 7 7 9 6 7 8 7 11 13 15 18 15 13 11 9 11 11 9 9 7 6 6 6 7 7 7 8 6 3 2 2 2 5 8 10 14 17 12 5 -0 1 7 8 3 3 6 6 6 9 9 8 10 9 6 6 6 8 8 5 3 5 13 20 16 9 6 3
7 7 8 9 11 14 16 18 16 12 8 5 7 14 18 16 10 9 13 18 20 13 7 8 7 7 6 7 12 12 13 16 15 12 10 9 10 11 10 8 8 7 6 6 6 7 6 8 9 6 4 2 2 4 7 11 12 14 16 11 4 0 1 7 7 2 3 7 7 8 9 8 6 7 9 8 8 8 7 7 4 5 18 20 12 15 20 13
13 15 16 18 19 21 22 24 26 24 20 12 5 6 13 19 15 8 9 14 20 18 12 7 8 8 4 7 11 11 12 14 14 13 10 9 9 10 10 8 8 7 6 6 6 7 6 6 8 8 6 3 2 4 6 9 11 14 18 14 8 7 2 2 8 7 3 5 8 6 8 9 5 5 6 6 8 9 10 8 3 7 12 3 1 10 12 8
26 26 26 24 22 21 21 20 22 25 26 23 16 8 7 14 20 14 6 10 18 20 17 8 6 8 5 7 11 10 12 13 15 15 12 10 9 9 10 9 8 8 7 6 6 6 7 6 6 7 6 5 3 3 5 9 13 17 20 16 10 9 8 3 4 10 7 4 9 8 7 9 8 6 3 3 5 8 9 5 11 24 17 6 12 14 4 2
21 19 18 17 16 15 14 14 13 15 19 23 23 18 12 9 16 19 10 7 14 19 22 14 5 7 6 5 10 11 11 14 14 14 12 11 11 10 10 9 8 8 7 7 6 6 6 6 6 6 5 5 3 4 6 10 15 17 17 17 11 6 10 8 3 8 10 6 7 8 7 7 6 6 4 4 3 5 4 2 20 26 4 -0 10 9 4 4
15 15 15 15 16 15 15 14 13 12 11 14 18 20 20 13 12 19 16 8 10 16 22 20 9 5 7 5 7 10 10 13 13 12 13 10 9 10 10 10 8 7 7 7 7 7 6 6 6 7 7 5 3 5 6 7 12 14 14 16 11 4 7 10 5 5 9 9 7 6 8 7 6 6 5 5 2 3 1 2 16 6 -7 12 20 11 7 3
19 21 22 23 23 23 23 22 21 20 14 10 10 14 20 19 13 14 18 11 8 15 20 22 14 4 7 7 6 10 9 11 12 11 13 11 8 9 9 9 8 8 7 6 7 7 7 6 6 7 7 6 4 5 5 6 10 12 14 16 11 3 4 9 7 4 6 9 9 6 5 4 6 6 6 8 3 2 2 1 8 -0 3 33 32 18 12 2
25 25 26 26 26 25 25 25 26 28 29 23 14 10 11 19 18 11 15 15 9 11 17 23 19 6 6 8 6 11 11 10 12 11 12 12 9 8 8 8 8 9 8 7 6 6 6 6 7 7 6 5 4 5 5 5 9 11 14 17 13 6 3 5 7 6 4 6 8 6 6 5 6 7 6 8 4 5 7 3 9 6 10 37 31 14 13 8
24 22 21 22 23 23 23 24 24 24 28 32 29 21 10 12 20 14 11 15 13 10 13 22 22 9 6 8 6 10 12 11 12 11 11 12 10 8 8 9 8 8 8 8 8 7 7 7 8 7 6 5 3 4 5 4 7 9 13 16 14 9 4 3 5 7 4 3 5 3 5 4 3 6 5 6 6 7 10 7 10 4 6 37 24 -4 9 17
19 20 21 22 24 26 26 24 25 25 24 27 30 32 23 11 14 18 12 13 16 11 10 18 22 14 8 7 7 7 10 12 12 12 11 11 11 8 8 8 9 8 7 8 8 8 8 9 9 7 7 6 4 4 4 4 5 7 13 15 13 10 7 4 3 7 6 3 5 3 4 2 1 5 3 6 7 7 13 8 8 4 4 30 22 1 16 7
18 21 21 22 25 31 35 33 31 28 24 25 28 32 35 24 12 14 12 13 18 11 8 15 19 18 12 6 6 6 9 12 11 12 12 11 12 10 7 8 8 8 8 8 8 8 7 8 10 8 7 6 5 5 4 5 6 7 12 13 12 10 8 6 2 4 6 5 6 5 5 4 4 7 5 8 8 7 12 5 6 8 4 26 25 2 1 -11
18 22 24 27 30 33 36 35 35 38 33 29 28 27 34 36 24 14 10 14 19 11 8 12 16 22 17 6 6 6 7 11 11 13 13 11 11 10 8 8 7 7 8 7 7 8 7 6 8 8 9 7 5 5 4 5 6 8 11 11 12 9 7 9 5 3 3 4 5 4 7 6 4 6 4 8 8 5 6 1 7 9 16 46 26 -20 -18 -0
25 27 30 37 39 36 36 33 30 37 38 31 30 29 30 36 32 18 10 16 19 12 9 9 14 25 18 6 7 7 6 10 11 13 13 12 11 10 9 8 8 7 7 7 7 7 7 6 7 6 7 7 6 5 5 5 5 8 10 10 12 9 6 9 9 7 5 4 4 5 8 6 4 4 4 7 6 4 5 4 10 8 16 38 8 -25 -5 9
24 20 24 33 36 36 37 38 34 38 43 37 33 33 31 35 39 25 11 17 20 14 9 7 17 27 16 6 7 6 7 11 10 12 13 12 11 10 10 8 8 8 7 8 7 7 8 8 8 8 7 7 6 6 7 7 5 7 10 11 11 9 7 7 8 9 7 5 5 6 7 6 6 6 5 8 6 8 10 6 10 9 6 13 1 3 16 -3
25 16 12 15 20 23 22 29 42 48 44 30 21 25 30 32 38 34 22 17 20 19 10 5 19 27 13 7 6 2 8 12 9 12 14 13 11 9 10 9 8 8 8 8 7 6 8 9 9 9 9 9 9 8 6 7 7 8 9 10 10 10 8 6 6 7 6 5 5 5 5 6 8 7 5 8 9 9 9 5 7 9 10 13 7 13 20 -1
19 10 2 2 8 21 27 31 38 37 28 18 13 21 31 30 23 26 27 17 14 20 14 8 20 28 14 6 5 2 7 11 8 11 15 14 11 8 9 10 9 8 7 7 8 7 7 9 9 8 8 9 11 11 7 5 7 9 9 9 9 9 8 7 6 5 4 4 3 2 4 4 6 8 7 7 9 8 7 8 8 9 14 15 8 8 11 6
-2 5 9 11 9 16 18 15 18 16 9 6 5 8 21 32 28 23 22 19 16 19 15 13 21 26 15 6 5 5 7 9 8 10 13 14 12 8 8 9 9 8 7 7 7 7 7 8 9 8 6 6 7 8 7 4 5 7 8 7 8 8 7 8 7 5 5 4 3 3 5 5 4 7 9 7 8 7 6 10 9 10 15 10 5 11 13 14
1 18 19 18 15 7 -5 -3 9 15 12 7 6 10 12 22 36 32 19 16 23 25 17 18 25 23 12 6 6 8 9 9 8 8 12 14 13 10 7 7 8 8 7 7 6 7 8 7 8 8 6 6 6 6 5 3 4 4 4 5 6 7 7 7 6 5 4 4 5 5 5 6 5 5 6 5 7 7 5 9 8 10 17 8 -0 10 20 21
16 20 12 14 23 20 13 15 14 15 22 16 9 16 10 6 24 35 25 15 21 30 26 21 26 21 11 7 6 7 11 12 9 8 10 13 14 11 8 7 8 6 8 9 6 6 7 7 7 7 6 6 6 7 4 2 3 2 3 4 4 5 6 6 5 4 4 2 4 7 5 6 6 5 5 4 5 6 6 8 8 11 18 9 -2 7 18 16
15 10 5 10 26 31 24 17 8 9 16 7 2 9 12 16 29 35 29 16 15 30 34 26 22 17 11 9 7 7 10 11 10 8 9 12 13 12 9 7 7 6 7 10 9 7 7 7 7 7 7 6 6 8 9 9 11 9 6 6 5 5 6 6 5 5 4 3 4 5 5 5 5 5 6 7 6 6 7 8 10 16 17 6 -1 3 9 9
3 9 8 6 18 20 17 14 9 12 10 1 3 10 24 39 35 30 30 20 14 27 36 30 21 12 8 9 9 9 10 11 10 8 9 13 12 12 11 7 7 6 5 9 10 9 8 8 9 8 7 8 7 8 7 5 9 11 7 6 6 5 5 5 6 5 5 4 4 5 4 4 6 5 6 8 8 7 8 7 11 20 16 4 2 2 2 8
-3 16 13 5 13 8 13 11 -3 6 13 6 11 26 41 30 4 13 31 22 18 30 34 29 19 9 7 7 8 9 9 11 12 8 8 12 12 13 12 8 8 7 6 7 9 11 9 7 9 9 8 9 9 10 10 5 3 5 6 6 6 5 4 4 5 6 7 6 4 6 5 4 6 6 6 8 7 8 10 8 12 22 14 -1 -2 -0 1 9
-4 14 6 4 14 5 10 14 5 20 25 20 31 33 19 -2 -7 23 35 17 20 34 32 23 15 9 6 6 7 8 8 9 11 10 8 10 12 13 12 10 8 8 8 7 7 11 11 8 9 9 8 10 9 9 12 9 4 4 5 6 7 5 3 4 4 4 7 6 5 6 6 5 6 6 7 8 7 9 11 9 12 19 11 -0 1 3 4 7
-1 8 6 6 12 7 19 28 22 21 15 19 24 -1 -12 7 23 29 18 10 24 34 28 20 14 11 6 6 8 7 9 10 8 9 9 10 12 11 11 11 9 8 9 8 7 9 11 10 10 10 8 9 10 9 8 7 5 7 8 7 5 4 3 4 3 3 6 5 4 5 5 5 6 5 6 8 8 11 12 8 9 13 9 5 6 7 6 5
2 8 11 3 2 13 26 16 4 10 15 17 -3 -23 5 36 25 8 3 14 29 31 25 17 14 12 5 5 10 8 9 11 8 7 8 10 11 10 11 11 10 9 9 9 8 9 10 10 10 11 9 8 9 9 8 6 5 5 6 5 3 4 5 4 3 3 4 4 3 4 4 5 6 7 7 8 9 10 11 9 6 6 7 5 5 8 7 3
18 21 15 7 11 20 17 6 15 26 18 11 2 5 29 25 5 4 8 18 31 31 23 15 12 12 5 4 10 10 10 10 9 7 6 9 11 10 11 10 10 11 9 8 8 8 10 10 9 11 11 9 8 8 7 9 8 4 2 2 2 3 4 5 4 3 3 3 3 2 3 5 6 7 7 7 9 9 9 7 4 5 9 9 6 5 2 -1
17 11 4 16 25 19 16 23 35 24 1 7 24 24 15 4 5 8 5 23 39 29 19 15 11 10 7 6 8 10 12 10 9 7 5 8 10 9 11 11 10 11 9 9 8 6 9 11 10 10 11 10 9 10 9 8 10 10 8 8 7 5 4 4 4 4 4 4 3 3 2 3 4 6 7 7 8 9 8 6 5 6 9 10 7 0 -6 -4
4 4 10 26 27 20 22 19 11 2 1 16 28 19 4 4 17 15 12 28 35 25 20 15 9 8 9 8 7 9 12 10 10 8 5 8 10 9 11 11 11 12 10 9 9 7 7 9 11 10 11 12 11 11 11 9 9 10 10 11 11 7 6 5 4 5 6 4 4 5 4 2 3 5 7 8 8 9 9 8 8 8 6 7 6 -2 -9 -4
17 21 26 30 28 21 11 1 3 7 9 17 25 20 8 8 19 18 16 27 29 26 23 12 8 9 8 8 9 9 11 11 10 9 6 7 10 9 11 12 12 13 11 9 9 8 6 6 11 11 9 11 11 11 11 10 8 8 7 8 8 7 8 7 5 5 5 4 3 4 4 3 2 3 4 6 7 8 8 8 10 11 8 7 6 2 -0 2
29 31 31 26 16 -4 -14 6 24 12 3 16 22 14 8 17 26 14 10 26 29 22 19 13 9 8 7 10 10 8 11 10 9 9 7 7 9 9 10 12 13 13 13 11 9 10 8 6 8 10 9 8 8 7 8 8 8 7 7 8 7 7 9 7 6 5 4 4 4 3 3 2 1 2 2 2 3 4 6 6 7 8 9 9 8 7 7 7
14 14 14 14 5 -9 1 32 30 0 1 18 17 13 15 21 26 14 10 23 22 17 20 15 8 7 9 11 10 9 10 10 9 10 7 6 9 9 9 11 12 12 13 14 12 10 10 9 7 8 9 9 7 7 7 7 8 7 7 8 8 7 8 7 7 5 4 5 5 4 4 4 3 3 3 3 3 3 4 5 5 5 6 8 8 8 7 7
10 7 6 12 17 20 28 28 11 4 18 21 12 16 15 9 17 20 13 15 18 18 18 13 10 10 8 10 11 10 10 10 10 10 9 8 8 8 9 10 12 11 11 13 14 11 9 10 9 8 9 11 12 13 13 11 10 9 8 8 8 8 7 8 7 5 6 6 4 4 5 4 3 4 4 5 5 4 4 4 4 4 4 4 3 4 5 5
14 17 18 18 20 25 14 -2 0 15 20 14 10 13 11 9 19 22 14 12 15 14 13 14 14 10 7 11 12 10 10 11 9 9 10 9 8 8 8 8 11 12 10 9 11 11 10 9 9 9 8 9 10 12 14 12 11 11 11 10 9 9 7 6 6 6 7 6 5 5 6 4 4 4 4 5 6 7 6 5 4 3 2 1 1 1 1 2
3 7 10 2 13 32 17 -5 6 16 10 10 12 12 12 11 14 17 15 14 15 14 15 15 12 10 11 10 11 12 11 10 9 9 8 8 8 8 8 7 9 11 11 9 8 10 11 10 9 9 8 8 8 8 11 12 11 10 11 11 10 9 8 7 7 6 7 7 6 6 7 6 5 5 3 4 5 6 7 7 6 4 3 3 2 1 0 1
-6 3 7 -3 12 42 34 13 11 8 6 12 10 9 12 11 14 19 13 8 11 13 17 18 14 12 12 9 11 13 12 11 12 10 9 9 7 8 8 8 8 9 10 10 9 9 11 10 9 9 8 8 8 7 8 10 10 10 10 10 10 9 8 8 8 7 6 6 6 7 7 7 7 7 7 6 5 5 5 6 6 6 5 4 3 2 3 5
-8 -1 7 2 10 27 29 24 17 7 7 10 6 7 7 4 10 14 7 7 12 8 10 19 19 14 12 12 12 12 12 14 15 12 11 10 8 8 9 9 9 9 10 10 10 10 11 11 10 9 8 8 7 7 8 8 10 10 9 10 10 9 9 8 7 7 7 7 6 6 6 6 6 7 8 8 7 6 5 5 6 6 5 5 5 5 7 11
13 11 5 -3 1 11 18 19 14 11 13 11 10 6 -2 2 11 8 4 11 18 15 8 13 22 22 17 13 12 14 15 15 15 14 12 11 10 10 9 9 9 10 10 10 9 10 11 11 11 9 8 9 8 7 7 8 9 8 8 9 9 9 9 8 7 6 6 7 7 7 6 6 7 7 7 8 8 7 7 7 7 8 8 9 11 12 13 13
16 23 20 8 -3 -6 2 8 9 14 14 14 17 2 -11 7 16 8 8 9 11 20 17 10 17 23 21 18 14 15 17 16 17 16 12 11 12 11 10 10 9 10 11 11 10 10 11 11 12 11 9 10 10 8 8 8 8 7 8 8 9 9 8 9 9 7 6 6 6 7 8 9 8 8 7 7 7 8 8 7 7 8 11 12 12 12 11 9
Height
5697 5696 5697 5697 5697 5698 5699 5700 5700 5701 5702 5703 5705 5706 5708 5710 5712 5714 5716 5719 5722 5725 5728 5732 5735 5739 5743 5747 5751 5755 5758 5761 5765 5770 5775 5775 5775 5778 5781 5784 5787 5790 5792 5795 5797 5800 5802 5805 5807 5809 5812 5814 5816 5818 5821 5823 5825 5827 5829 5831 5834 5836 5836 5837 5837 5838 5839 5841 5844 5846 5848 5849 5850 5851 5852 5854 5855 5856 5857 5858 5859 5860 5861 5861 5862 5863 5864 5863
5691 5691 5691 5691 5691 5692 5692 5694 5695 5695 5696 5697 5699 5700 5702 5704 5706 5708 5710 5713 5716 5719 5722 5725 5729 5733 5737 5741 5745 5749 5753 5756 5760 5766 5769 5769 5771 5774 5777 5780 5783 5786 5789 5791 5794 5796 5799 5801 5803 5806 5808 5810 5813 5815 5817 5820 5822 5824 5827 5829 5832 5833 5833 5833 5835 5836 5837 5839 5842 5844 5846 5847 5848 5849 5850 5852 5853 5854 5856 5857 5858 5859 5859 5860 5860 5861 5862 5862
5685 5685 5685 5685 5685 5685 5686 5687 5688 5689 5690 5691 5693 5694 5696 5698 5700 5702 5704 5707 5710 5713 5716 5719 5723 5727 5730 5735 5739 5742 5747 5751 5756 5761 5762 5764 5767 5770 5773 5777 5780 5783 5786 5788 5791 5793 5795 5798 5800 5802 5805 5807 5809 5811 5814 5816 5819 5822 5824 5827 5829 5829 5830 5831 5832 5833 5835 5837 5840 5842 5844 5844 5845 5846 5848 5849 5851 5852 5854 5855 5855 5856 5857 5858 5859 5860 5860 5861
5678 5678 5678 5678 5679 5679 5680 5680 5682 5683 5684 5685 5686 5688 5690 5692 5694 5696 5698 5701 5704 5707 5710 5713 5717 5721 5724 5729 5732 5736 5741 5745 5751 5755 5757 5760 5762 5765 5770 5773 5777 5780 5782 5785 5788 5791 5793 5795 5797 5800 5802 5804 5806 5808 5811 5813 5816 5819 5822 5825 5826 5826 5827 5828 5830 5831 5832 5835 5837 5840 5842 5842 5843 5844 5845 5847 5848 5850 5851 5852 5853 5854 5855 5856 5857 5858 5859 5859
5671 5671 5671 5672 5672 5672 5673 5674 5675 5676 5677 5678 5680 5682 5684 5686 5688 5690 5692 5695 5698 5701 5704 5707 5711 5714 5719 5723 5726 5731 5736 5739 5745 5750 5753 5755 5757 5762 5767 5769 5773 5776 5779 5782 5785 5788 5790 5792 5795 5797 5799 5801 5803 5805 5808 5810 5812 5816 5819 5822 5822 5823 5824 5826 5827 5828 5830 5832 5835 5838 5839 5840 5841 5842 5843 5844 5846 5848 5849 5849 5850 5851 5853 5854 5855 5856 5858 5858
5664 5664 5664 5664 5665 5665 5666 5666 5667 5669 5670 5671 5673 5675 5677 5679 5682 5684 5687 5689 5692 5695 5698 5701 5705 5708 5713 5716 5720 5725 5730 5734 5740 5745 5747 5749 5752 5758 5762 5766 5769 5772 5775 5779 5782 5785 5787 5790 5792 5794 5796 5798 5800 5802 5804 5807 5809 5813 5816 5818 5819 5820 5821 5823 5824 5826 5827 5830 5832 5835 5837 5838 5839 5840 5840 5842 5844 5845 5846 5847 5849 5850 5851 5852 5854 5855 5856 5857
5656 5656 5656 5656 5657 5657 5658 5659 5660 5661 5663 5664 5666 5668 5670 5672 5675 5678 5680 5683 5686 5689 5692 5696 5699 5703 5706 5710 5715 5719 5725 5730 5734 5739 5742 5744 5747 5753 5758 5762 5765 5768 5772 5775 5779 5782 5784 5787 5790 5792 5794 5795 5797 5799 5801 5804 5807 5810 5813 5815 5816 5817 5818 5820 5822 5824 5825 5827 5830 5832 5834 5836 5837 5838 5839 5841 5842 5843 5845 5846 5847 5849 5850 5851 5853 5854 5855 5855
5648 5647 5647 5648 5648 5649 5650 5651 5652 5653 5654 5656 5658 5660 5662 5665 5668 5671 5674 5677 5680 5683 5686 5690 5693 5697 5700 5704 5709 5714 5721 5725 5728 5733 5737 5739 5743 5749 5754 5757 5761 5764 5768 5772 5775 5778 5781 5784 5786 5788 5790 5792 5794 5796 5798 5801 5804 5807 5810 5811 5812 5814 5815 5817 5820 5822 5823 5825 5828 5830 5832 5833 5834 5836 5838 5840 5840 5841 5843 5844 5846 5847 5848 5850 5851 5852 5853 5853
5639 5639 5639 5639 5639 5640 5641 5642 5644 5645 5646 5648 5650 5653 5655 5657 5661 5664 5667 5670 5674 5677 5681 5684 5688 5692 5695 5699 5704 5710 5717 5718 5721 5727 5731 5734 5738 5744 5749 5753 5757 5761 5764 5768 5771 5774 5777 5780 5783 5785 5787 5789 5791 5793 5795 5798 5801 5804 5807 5808 5809 5811 5813 5816 5819 5820 5821 5823 5825 5827 5829 5831 5832 5835 5836 5837 5838 5840 5842 5843 5845 5846 5847 5849 5849 5850 5851 5851
5631 5630 5631 5631 5631 5631 5632 5633 5635 5637 5638 5640 5642 5645 5647 5650 5653 5657 5660 5663 5667 5671 5675 5678 5682 5686 5690 5694 5698 5706 5711 5711 5715 5721 5726 5729 5733 5739 5745 5748 5753 5757 5760 5764 5767 5771 5774 5777 5779 5781 5784 5786 5788 5790 5792 5795 5798 5801 5804 5806 5807 5809 5811 5814 5816 5817 5819 5821 5823 5824 5827 5829 5831 5833 5835 5836 5837 5839 5840 5842 5843 5845 5846 5847 5847 5848 5849 5849
5623 5622 5622 5623 5623 5624 5624 5625 5626 5628 5630 5632 5634 5636 5639 5642 5645 5649 5653 5656 5661 5664 5668 5673 5676 5681 5685 5689 5695 5702 5704 5705 5710 5716 5720 5725 5729 5735 5740 5744 5749 5752 5756 5760 5763 5767 5770 5772 5775 5778 5780 5783 5785 5788 5790 5792 5795 5799 5802 5803 5804 5807 5809 5811 5813 5815 5817 5819 5820 5822 5824 5827 5829 5831 5833 5834 5836 5838 5839 5840 5842 5843 5844 5844 5845 5846 5847 5847
5616 5615 5614 5615 5616 5616 5617 5617 5618 5619 5621 5623 5626 5628 5631 5634 5637 5641 5645 5649 5654 5658 5662 5667 5671 5676 5679 5685 5692 5695 5696 5700 5704 5710 5715 5720 5724 5730 5735 5740 5744 5748 5752 5756 5759 5762 5766 5769 5772 5774 5777 5780 5783 5785 5787 5790 5792 5796 5799 5801 5802 5804 5807 5809 5811 5812 5814 5816 5818 5820 5822 5825 5827 5829 5831 5832 5834 5836 5837 5839 5840 5841 5842 5842 5843 5844 5845 5846
5608 5607 5607 5606 5607 5608 5608 5609 5610 5611 5613 5615 5617 5620 5623 5625 5629 5633 5637 5641 5646 5651 5656 5661 5666 5670 5674 5682 5686 5687 5690 5695 5699 5705 5710 5714 5719 5725 5730 5735 5740 5744 5748 5751 5754 5758 5761 5765 5768 5771 5774 5778 5780 5782 5785 5787 5790 5793 5796 5798 5800 5802 5805 5807 5808 5810 5812 5814 5816 5818 5820 5823 5825 5827 5829 5830 5832 5833 5835 5837 5838 5839 5840 5840 5841 5842 5843 5844
5598 5598 5598 5597 5597 5598 5599 5600 5601 5602 5604 5606 5609 5611 5614 5617 5621 5625 5629 5634 5639 5644 5650 5655 5660 5664 5671 5678 5679 5680 5686 5691 5695 5700 5704 5709 5714 5720 5726 5731 5735 5739 5743 5747 5751 5755 5758 5762 5765 5768 5771 5775 5777 5780 5782 5785 5787 5790 5793 5795 5797 5800 5803 5804 5806 5808 5810 5812 5813 5816 5818 5820 5823 5825 5826 5828 5830 5832 5834 5835 5837 5837 5837 5838 5839 5840 5840 5841
5587 5586 5586 5586 5586 5587 5588 5590 5591 5593 5595 5597 5599 5602 5605 5609 5612 5617 5621 5626 5631 5637 5643 5648 5654 5659 5667 5672 5673 5676 5681 5686 5690 5693 5699 5705 5710 5716 5721 5726 5731 5735 5739 5743 5747 5751 5755 5759 5762 5765 5768 5772 5774 5777 5780 5782 5784 5787 5790 5792 5794 5798 5800 5801 5803 5805 5808 5810 5811 5814 5816 5818 5820 5823 5825 5826 5828 5830 5833 5833 5834 5835 5835 5835 5837 5837 5838 5839
5576 5575 5574 5574 5574 5575 5576 5578 5580 5583 5585 5588 5590 5593 5596 5600 5604 5609 5614 5619 5624 5630 5636 5642 5648 5655 5661 5666 5668 5671 5676 5680 5683 5687 5695 5701 5705 5711 5716 5721 5726 5731 5735 5739 5743 5748 5751 5755 5758 5762 5765 5768 5771 5774 5777 5780 5781 5784 5787 5789 5792 5796 5798 5799 5800 5803 5806 5807 5809 5812 5814 5815 5818 5820 5823 5825 5826 5828 5830 5831 5832 5833 5833 5833 5834 5835 5836 5837
5566 5564 5563 5563 5563 5564 5565 5567 5569 5572 5574 5577 5580 5583 5587 5592 5596 5602 5607 5612 5617 5623 5629 5636 5643 5649 5655 5660 5663 5666 5670 5674 5678 5684 5691 5695 5700 5706 5711 5717 5722 5726 5731 5735 5739 5744 5747 5751 5755 5759 5762 5765 5769 5772 5775 5777 5779 5782 5784 5786 5790 5794 5795 5797 5798 5801 5803 5805 5807 5809 5811 5813 5815 5818 5820 5822 5824 5825 5827 5828 5829 5829 5829 5829 5831 5832 5833 5834
5556 5554 5553 5552 5553 5553 5554 5556 5558 5561 5563 5567 5570 5574 5578 5583 5588 5594 5601 5606 5610 5616 5623 5630 5637 5643 5649 5654 5657 5661 5665 5670 5675 5681 5686 5691 5696 5701 5706 5712 5717 5722 5727 5731 5736 5739 5743 5747 5751 5755 5758 5762 5766 5770 5773 5776 5779 5780 5782 5785 5788 5791 5793 5794 5796 5798 5801 5803 5805 5807 5809 5811 5813 5815 5818 5819 5821 5823 5825 5826 5827 5827 5826 5827 5828 5829 5830 5831
5546 5544 5543 5542 5542 5543 5544 5546 5548 5551 5553 5557 5561 5564 5569 5575 5581 5587 5594 5599 5605 5611 5617 5623 5630 5636 5643 5648 5652 5656 5661 5667 5671 5676 5681 5687 5692 5697 5702 5707 5713 5718 5722 5727 5731 5735 5739 5743 5747 5750 5755 5760 5765 5769 5772 5775 5777 5779 5782 5784 5787 5789 5790 5791 5793 5796 5798 5801 5803 5805 5807 5809 5811 5813 5815 5817 5819 5821 5823 5824 5825 5826 5826 5826 5826 5827 5827 5828
5537 5535 5534 5533 5532 5533 5534 5535 5538 5540 5544 5548 5551 5555 5560 5567 5574 5581 5587 5594 5599 5603 5609 5616 5624 5630 5636 5642 5646 5651 5656 5662 5666 5671 5677 5683 5688 5694 5699 5703 5709 5713 5718 5723 5728 5732 5736 5740 5744 5750 5756 5760 5764 5767 5770 5771 5773 5776 5779 5781 5784 5787 5788 5789 5791 5794 5797 5799 5801 5803 5805 5806 5809 5811 5813 5814 5816 5818 5820 5821 5822 5824 5825 5824 5822 5822 5823 5825
5528 5526 5524 5523 5523 5523 5523 5524 5527 5529 5534 5539 5542 5547 5553 5560 5567 5574 5581 5587 5592 5596 5603 5610 5616 5624 5630 5636 5641 5646 5652 5657 5661 5667 5673 5678 5683 5689 5694 5700 5705 5709 5714 5719 5724 5728 5733 5737 5743 5749 5754 5757 5760 5763 5766 5768 5771 5773 5775 5778 5781 5784 5785 5786 5789 5792 5795 5797 5799 5801 5803 5805 5807 5808 5810 5812 5814 5816 5817 5819 5820 5822 5824 5825 5821 5820 5820 5822
5521 5519 5517 5515 5514 5514 5514 5515 5517 5519 5523 5528 5533 5539 5546 5552 5559 5566 5573 5579 5585 5591 5597 5603 5611 5619 5625 5631 5637 5642 5648 5652 5656 5662 5668 5673 5679 5684 5690 5695 5701 5706 5711 5715 5719 5724 5728 5734 5741 5746 5749 5752 5755 5759 5762 5765 5768 5770 5773 5775 5779 5782 5783 5785 5787 5790 5793 5795 5796 5799 5801 5802 5804 5805 5807 5809 5811 5813 5815 5817 5819 5821 5822 5823 5823 5822 5820 5821
5515 5513 5510 5508 5506 5505 5506 5506 5508 5511 5514 5518 5523 5530 5538 5544 5551 5559 5567 5573 5579 5585 5591 5598 5606 5613 5619 5625 5631 5638 5644 5648 5652 5657 5663 5669 5675 5681 5686 5692 5697 5702 5707 5712 5717 5722 5726 5732 5738 5742 5745 5748 5752 5756 5759 5762 5765 5768 5770 5773 5776 5780 5782 5783 5785 5787 5790 5792 5794 5796 5799 5800 5802 5803 5804 5806 5809 5811 5813 5815 5817 5819 5820 5819 5821 5822 5821 5822
5510 5507 5504 5502 5499 5498 5497 5498 5500 5502 5505 5509 5515 5521 5529 5537 5544 5553 5560 5566 5572 5579 5585 5591 5598 5606 5612 5618 5627 5634 5639 5644 5649 5654 5660 5666 5671 5677 5683 5689 5694 5699 5704 5710 5715 5720 5725 5731 5736 5739 5742 5746 5749 5753 5756 5760 5763 5766 5768 5771 5774 5777 5780 5781 5783 5785 5787 5789 5791 5794 5795 5797 5798 5799 5801 5804 5807 5809 5811 5813 5814 5817 5817 5816 5819 5820 5820 5821
5505 5502 5499 5496 5493 5491 5490 5490 5492 5494 5497 5502 5508 5514 5521 5530 5539 5547 5553 5558 5566 5574 5579 5585 5594 5602 5606 5614 5623 5629 5634 5640 5646 5651 5657 5663 5668 5674 5679 5685 5690 5696 5701 5706 5711 5716 5722 5728 5732 5736 5739 5743 5747 5750 5754 5758 5761 5763 5766 5768 5771 5775 5777 5779 5782 5784 5785 5787 5789 5791 5792 5793 5795 5797 5799 5802 5805 5807 5809 5810 5812 5814 5814 5814 5816 5818 5819 5820
5501 5497 5494 5491 5488 5486 5485 5485 5485 5487 5491 5497 5502 5508 5515 5524 5533 5540 5547 5552 5560 5569 5574 5581 5590 5595 5602 5612 5620 5624 5630 5637 5643 5648 5653 5659 5665 5670 5676 5681 5686 5692 5698 5703 5708 5712 5717 5723 5728 5732 5736 5740 5744 5748 5751 5755 5758 5761 5763 5766 5769 5772 5775 5778 5780 5781 5783 5784 5787 5789 5790 5791 5793 5795 5797 5800 5803 5806 5807 5808 5810 5811 5811 5811 5814 5817 5818 5819
5498 5494 5491 5488 5485 5483 5482 5481 5481 5483 5487 5492 5498 5504 5511 5518 5525 5533 5541 5547 5556 5564 5570 5578 5585 5590 5599 5609 5615 5620 5627 5633 5638 5644 5650 5656 5662 5667 5673 5678 5683 5688 5693 5699 5703 5708 5714 5720 5724 5729 5733 5736 5741 5745 5748 5752 5755 5758 5762 5764 5767 5770 5774 5776 5778 5779 5780 5782 5785 5786 5787 5789 5791 5793 5795 5798 5801 5804 5806 5807 5808 5810 5810 5810 5813 5816 5817 5818
5496 5493 5490 5487 5484 5482 5481 5480 5480 5481 5484 5489 5495 5501 5507 5513 5519 5527 5535 5542 5551 5559 5565 5573 5579 5585 5594 5603 5610 5618 5624 5629 5634 5640 5647 5653 5659 5664 5669 5675 5681 5686 5691 5696 5700 5705 5712 5717 5722 5727 5730 5734 5738 5743 5746 5750 5753 5756 5760 5762 5764 5768 5771 5773 5775 5776 5777 5779 5781 5782 5784 5786 5788 5791 5792 5795 5798 5802 5804 5806 5806 5808 5809 5810 5812 5814 5816 5817
5496 5494 5491 5488 5486 5484 5483 5482 5481 5482 5485 5490 5495 5499 5505 5510 5516 5523 5530 5537 5546 5554 5560 5567 5574 5581 5589 5598 5606 5613 5619 5626 5632 5637 5643 5649 5655 5661 5667 5672 5677 5683 5689 5694 5698 5704 5710 5716 5721 5725 5729 5733 5737 5741 5744 5747 5751 5754 5757 5759 5762 5764 5767 5770 5772 5773 5774 5775 5777 5779 5782 5783 5785 5789 5790 5791 5796 5801 5803 5804 5805 5806 5807 5808 5810 5812 5814 5815
5497 5495 5493 5491 5489 5488 5487 5486 5486 5486 5489 5494 5498 5501 5505 5510 5514 5519 5525 5533 5541 5548 5554 5563 5571 5578 5586 5595 5602 5609 5615 5622 5628 5634 5640 5645 5651 5658 5663 5669 5675 5679 5685 5690 5695 5701 5708 5713 5717 5721 5725 5730 5734 5737 5741 5744 5747 5752 5755 5757 5759 5761 5764 5766 5768 5770 5771 5771 5773 5776 5779 5780 5782 5786 5788 5791 5796 5799 5800 5801 5803 5805 5806 5807 5808 5809 5811 5812
5498 5496 5494 5493 5492 5492 5490 5490 5491 5492 5494 5497 5501 5504 5507 5511 5514 5518 5525 5533 5539 5545 5553 5561 5569 5576 5585 5594 5601 5606 5612 5618 5624 5631 5636 5641 5648 5654 5659 5664 5670 5675 5680 5685 5690 5697 5703 5708 5712 5717 5721 5725 5729 5733 5736 5740 5744 5748 5751 5754 5756 5758 5760 5762 5764 5766 5767 5768 5770 5773 5776 5778 5779 5783 5787 5790 5793 5795 5797 5799 5801 5803 5804 5806 5806 5807 5808 5809
5500 5498 5496 5495 5494 5494 5494 5494 5495 5496 5497 5500 5504 5506 5509 5512 5514 5519 5526 5532 5538 5544 5552 5559 5567 5574 5583 5592 5599 5605 5611 5616 5622 5628 5633 5639 5645 5650 5656 5661 5665 5669 5673 5679 5685 5692 5699 5704 5709 5714 5718 5722 5725 5729 5732 5736 5740 5744 5747 5750 5752 5754 5756 5758 5760 5762 5763 5764 5767 5771 5773 5774 5776 5780 5785 5787 5790 5792 5795 5798 5799 5800 5802 5804 5805 5806 5806 5807
5501 5500 5499 5497 5496 5496 5496 5497 5498 5498 5499 5503 5506 5508 5511 5513 5515 5520 5526 5532 5537 5542 5549 5557 5565 5573 5581 5588 5595 5602 5609 5615 5621 5625 5630 5637 5643 5648 5653 5659 5664 5668 5673 5677 5682 5688 5694 5699 5704 5709 5713 5718 5722 5726 5729 5733 5737 5741 5744 5747 5748 5750 5752 5753 5755 5758 5759 5762 5765 5769 5770 5770 5772 5777 5781 5784 5788 5791 5794 5796 5797 5798 5800 5802 5803 5804 5805 5806
5503 5502 5500 5499 5498 5497 5498 5499 5500 5500 5502 5505 5508 5510 5512 5514 5517 5521 5526 5531 5536 5541 5548 5556 5562 5569 5579 5587 5594 5600 5606 5613 5619 5624 5629 5634 5640 5645 5650 5655 5660 5665 5672 5678 5682 5687 5692 5695 5700 5705 5710 5715 5719 5724 5729 5734 5737 5740 5742 5745 5746 5748 5750 5751 5754 5756 5757 5760 5764 5767 5767 5766 5769 5775 5779 5783 5786 5789 5792 5794 5795 5797 5798 5800 5801 5802 5804 5805
5504 5503 5502 5501 5500 5500 5501 5501 5502 5503 5505 5507 5509 5511 5512 5515 5519 5524 5528 5532 5537 5542 5548 5555 5561 5568 5577 5585 5592 5598 5605 5611 5617 5623 5628 5634 5638 5642 5648 5653 5657 5661 5668 5675 5680 5686 5691 5695 5700 5705 5710 5714 5718 5722 5726 5730 5734 5737 5739 5741 5743 5745 5747 5750 5753 5755 5757 5759 5762 5765 5764 5764 5768 5774 5778 5781 5784 5787 5789 5791 5793 5795 5796 5798 5799 5801 5802 5804
5506 5505 5504 5503 5503 5503 5504 5504 5505 5506 5508 5509 5510 5511 5513 5517 5521 5526 5530 5533 5537 5542 5547 5553 5560 5567 5575 5583 5589 5596 5603 5610 5616 5621 5626 5632 5638 5642 5647 5651 5655 5660 5666 5672 5677 5683 5688 5693 5699 5704 5709 5713 5717 5721 5725 5727 5729 5733 5736 5737 5740 5743 5746 5749 5751 5753 5755 5757 5759 5762 5762 5762 5766 5772 5776 5779 5782 5785 5787 5789 5791 5793 5795 5796 5798 5799 5800 5802
5507 5507 5506 5506 5505 5505 5506 5506 5507 5507 5508 5509 5511 5512 5515 5519 5523 5527 5531 5534 5538 5542 5547 5553 5560 5568 5575 5582 5588 5595 5602 5608 5614 5619 5624 5630 5635 5641 5646 5650 5654 5660 5666 5671 5676 5682 5687 5692 5696 5702 5707 5711 5715 5719 5723 5725 5728 5731 5733 5736 5740 5744 5746 5748 5749 5750 5752 5754 5756 5759 5760 5760 5763 5768 5773 5777 5780 5783 5786 5788 5789 5791 5792 5794 5796 5797 5798 5799
5509 5509 5508 5508 5507 5507 5507 5507 5508 5508 5508 5509 5511 5513 5516 5520 5524 5528 5532 5536 5540 5544 5549 5555 5563 5570 5577 5583 5589 5595 5601 5607 5612 5617 5624 5629 5633 5638 5643 5648 5653 5659 5665 5671 5675 5680 5686 5690 5695 5700 5704 5709 5712 5715 5718 5721 5725 5728 5731 5735 5739 5742 5742 5744 5746 5747 5749 5751 5753 5756 5758 5759 5761 5765 5772 5776 5778 5781 5784 5786 5787 5789 5790 5792 5793 5795 5796 5797
5511 5510 5510 5509 5509 5509 5509 5509 5509 5509 5509 5510 5512 5515 5518 5522 5526 5530 5534 5538 5541 5545 5550 5557 5564 5571 5577 5584 5590 5595 5601 5606 5611 5616 5622 5627 5633 5637 5641 5646 5651 5657 5663 5669 5674 5678 5682 5687 5692 5697 5701 5705 5708 5711 5714 5717 5720 5724 5727 5731 5734 5737 5739 5741 5743 5745 5747 5749 5751 5754 5756 5757 5760 5765 5770 5774 5776 5779 5781 5783 5785 5786 5788 5789 5790 5792 5793 5794
5513 5512 5512 5511 5511 5511 5510 5510 5511 5511 5512 5513 5516 5519 5521 5525 5529 5533 5536 5539 5543 5546 5552 5559 5566 5572 5577 5584 5590 5596 5601 5606 5611 5616 5621 5626 5632 5636 5640 5644 5649 5655 5661 5666 5670 5675 5680 5684 5689 5693 5697 5700 5703 5706 5712 5716 5719 5722 5724 5727 5730 5732 5735 5738 5740 5742 5744 5747 5749 5751 5753 5756 5759 5763 5768 5771 5773 5775 5778 5780 5782 5783 5785 5786 5787 5789 5790 5791
5515 5515 5514 5514 5513 5512 5512 5513 5513 5514 5516 5518 5521 5524 5526 5529 5532 5534 5537 5541 5545 5549 5554 5561 5567 5573 5578 5584 5590 5597 5602 5606 5611 5616 5620 5625 5630 5634 5638 5643 5648 5654 5659 5663 5667 5672 5677 5682 5686 5690 5693 5697 5702 5707 5713 5716 5719 5723 5726 5728 5731 5732 5734 5736 5737 5739 5742 5744 5746 5748 5750 5753 5758 5762 5765 5768 5770 5772 5775 5777 5779 5781 5782 5783 5785 5786 5787 5789
5518 5518 5517 5516 5515 5515 5516 5517 5518 5519 5521 5523 5525 5528 5530 5532 5534 5537 5540 5543 5547 5552 5557 5563 5569 5575 5580 5585 5591 5596 5602 5607 5611 5616 5620 5625 5630 5634 5638 5643 5648 5653 5657 5661 5666 5671 5676 5680 5684 5688 5693 5698 5703 5707 5711 5713 5717 5721 5724 5727 5730 5731 5733 5735 5736 5738 5741 5743 5744 5747 5749 5751 5756 5760 5763 5765 5767 5769 5772 5774 5776 5778 5780 5781 5782 5784 5785 5786
5521 5520 5520 5519 5519 5519 5520 5522 5523 5524 5525 5527 5529 5530 5532 5535 5537 5540 5543 5546 5550 5554 5560 5565 5571 5576 5581 5587 5592 5597 5601 5606 5611 5616 5621 5626 5630 5634 5639 5643 5648 5652 5656 5660 5664 5669 5674 5678 5682 5686 5691 5696 5700 5703 5707 5709 5712 5714 5717 5721 5724 5727 5730 5732 5734 5737 5739 5740 5742 5745 5746 5749 5753 5757 5760 5762 5764 5766 5768 5771 5773 5774 5777 5778 5780 5781 5782 5783
5525 5524 5523 5523 5523 5524 5525 5527 5527 5528 5529 5531 5532 5534 5536 5539 5541 5544 5547 5550 5553 5558 5563 5568 5573 5578 5584 5588 5593 5598 5602 5606 5611 5616 5621 5625 5629 5633 5638 5642 5646 5651 5655 5659 5663 5668 5672 5675 5679 5683 5686 5689 5693 5696 5700 5702 5705 5709 5713 5717 5721 5724 5726 5728 5730 5733 5734 5736 5739 5741 5742 5745 5749 5752 5756 5758 5760 5763 5765 5767 5769 5771 5773 5775 5776 5778 5779 5780
5529 5529 5528 5528 5529 5529 5530 5531 5531 5532 5533 5534 5536 5538 5540 5542 5545 5548 5551 5555 5559 5562 5566 5571 5576 5580 5585 5590 5594 5598 5602 5607 5611 5616 5620 5624 5628 5633 5637 5641 5645 5650 5655 5659 5663 5668 5672 5675 5677 5680 5683 5686 5688 5691 5694 5697 5701 5706 5710 5714 5717 5720 5722 5725 5727 5728 5729 5732 5735 5736 5738 5742 5745 5748 5752 5755 5757 5759 5761 5764 5766 5768 5769 5771 5772 5774 5774 5775
5535 5534 5534 5534 5534 5534 5534 5534 5535 5535 5536 5538 5540 5542 5544 5546 5549 5552 5555 5558 5562 5566 5570 5574 5578 5582 5586 5591 5595 5599 5603 5608 5613 5617 5621 5624 5628 5632 5636 5640 5644 5649 5653 5657 5661 5665 5669 5673 5676 5680 5684 5687 5691 5694 5697 5700 5702 5705 5709 5712 5715 5717 5720 5722 5724 5725 5727 5730 5733 5734 5737 5740 5742 5745 5748 5751 5753 5755 5758 5760 5762 5764 5766 5767 5768 5769 5770 5772
5540 5539 5539 5539 5539 5539 5538 5538 5538 5539 5540 5541 5543 5546 5548 5549 5552 5556 5559 5562 5565 5569 5572 5576 5580 5584 5588 5592 5596 5600 5604 5609 5613 5618 5622 5625 5628 5631 5635 5639 5643 5648 5651 5655 5658 5662 5666 5670 5673 5677 5681 5685 5689 5693 5696 5699 5701 5704 5708 5711 5714 5716 5718 5719 5720 5722 5726 5728 5730 5733 5736 5738 5740 5742 5744 5748 5750 5752 5754 5756 5758 5760 5761 5763 5764 5765 5767 5768
5544 5543 5543 5543 5543 5543 5543 5543 5543 5543 5544 5546 5547 5549 5552 5554 5556 5559 5563 5566 5569 5572 5575 5578 5582 5586 5590 5593 5597 5601 5605 5609 5613 5618 5621 5624 5628 5632 5635 5638 5642 5646 5649 5652 5655 5659 5664 5667 5671 5674 5678 5682 5685 5688 5692 5695 5698 5701 5705 5708 5711 5713 5715 5717 5719 5722 5724 5726 5728 5732 5734 5735 5737 5739 5741 5744 5747 5749 5750 5752 5754 5756 5758 5759 5760 5762 5764 5765
5548 5547 5547 5546 5546 5546 5547 5547 5548 5548 5549 5550 5552 5553 5556 5558 5561 5563 5566 5569 5572 5575 5578 5581 5584 5587 5591 5595 5599 5602 5607 5611 5615 5618 5621 5624 5628 5632 5635 5638 5641 5644 5648 5651 5653 5657 5661 5665 5669 5672 5675 5679 5682 5685 5689 5692 5694 5697 5700 5704 5707 5710 5712 5715 5718 5720 5721 5724 5726 5729 5730 5732 5735 5736 5738 5740 5743 5745 5746 5748 5750 5752 5754 5756 5757 5759 5760 5762
5553 5552 5551 5550 5549 5549 5550 5551 5552 5553 5554 5555 5556 5557 5560 5563 5565 5567 5570 5572 5576 5579 5581 5584 5587 5590 5593 5596 5600 5604 5608 5613 5617 5620 5622 5625 5628 5632 5635 5638 5641 5643 5646 5649 5652 5656 5660 5663 5666 5670 5673 5676 5679 5683 5686 5689 5691 5694 5697 5700 5703 5706 5708 5711 5713 5715 5718 5720 5723 5725 5727 5729 5731 5732 5734 5737 5739 5741 5743 5745 5747 5749 5750 5752 5754 5755 5757 5758
5557 5556 5555 5554 5554 5553 5553 5554 5555 5556 5557 5559 5560 5561 5563 5566 5568 5571 5573 5576 5579 5582 5584 5586 5589 5592 5595 5598 5601 5605 5609 5613 5617 5620 5622 5625 5629 5632 5635 5638 5641 5644 5646 5649 5651 5655 5659 5662 5665 5668 5670 5673 5677 5680 5683 5686 5689 5691 5693 5697 5700 5703 5705 5708 5710 5713 5715 5717 5720 5722 5724 5727 5728 5730 5732 5734 5735 5737 5739 5741 5743 5745 5746 5748 5750 5751 5752 5754
5560 5560 5559 5559 5558 5558 5558 5558 5559 5559 5560 5562 5563 5564 5566 5568 5570 5572 5575 5579 5582 5584 5587 5589 5592 5594 5596 5599 5602 5606 5610 5613 5616 5619 5621 5624 5628 5631 5634 5638 5641 5644 5646 5649 5651 5655 5658 5661 5664 5666 5668 5671 5675 5678 5681 5684 5685 5687 5690 5694 5697 5700 5703 5706 5708 5710 5713 5715 5717 5719 5722 5724 5725 5726 5728 5730 5732 5734 5736 5738 5739 5741 5743 5744 5746 5747 5749 5750